User: anonymous   Login
Location: Sternwarte Hubelmatt
(47.0367°N, 8.3053°E)
Time: 11:40:12
(UTC+02:00)
Language:

XW-2C - Orbit

View from above orbital plane
View from above orbital plane
View from above satellite
View from above satellite

Ground track
Ground track

The orbit data is extracted from the following two-line orbital elements,

1 40906U 15049H   24282.84860434  .00105807  00000-0  15411-2 0  9998
2 40906  97.4695 303.4600 0004343 224.1609 135.9298 15.55349783502054
Epoch (UTC): 08 October 2024 20:21:59
Eccentricity: 0.0004343
inclination: 97.4695°
perigee height: 398 km
apogee height: 404 km
right ascension of ascending node: 303.4600°
argument of perigee: 224.1609°
revolutions per day: 15.55349783
mean anomaly at epoch: 135.9298°
orbit number at epoch: 50205

The dashed part of the orbit path shows where the satellite is in the earth's shadow,  

DLR